PDT,Max TemperatureF,Mean TemperatureF,Min TemperatureF,Max Dew PointF,MeanDew PointF,Min DewpointF,Max Humidity, Mean Humidity, Min Humidity, Max Sea Level PressureIn, Mean Sea Level PressureIn, Min Sea Level PressureIn, Max VisibilityMiles, Mean VisibilityMiles, Min VisibilityMiles, Max Wind SpeedMPH, Mean Wind SpeedMPH, Max Gust SpeedMPH,PrecipitationIn, CloudCover, Events, WindDirDegrees
2013-5-1,66,48,29,20,16,11,59,30,12,30.43,30.36,30.28,10,10,10,18,8,22,0.00,0,,73
2013-5-2,74,54,33,34,17,11,65,26,9,30.41,30.30,30.19,10,10,9,16,6,21,0.00,0,,59
2013-5-3,77,55,32,36,27,20,79,37,13,30.20,30.12,30.02,10,10,10,23,8,26,0.00,0,,351
2013-5-4,69,57,45,36,28,24,50,35,21,30.05,29.90,29.78,10,10,7,32,15,43,T,1,Rain,55
2013-5-5,72,58,44,44,36,31,80,47,25,29.80,29.73,29.65,10,10,9,28,8,35,T,3,Rain-Thunderstorm,70
2013-5-6,73,55,37,49,43,36,93,73,27,29.87,29.81,29.72,10,10,7,25,5,31,0.09,4,Rain-Thunderstorm,285
2013-5-7,65,55,45,52,48,45,100,88,60,29.98,29.93,29.85,10,7,0,25,5,29,0.06,6,Fog-Rain-Thunderstorm,249
2013-5-8,68,53,38,52,46,39,100,89,52,30.17,30.06,29.97,10,6,0,26,4,36,0.07,4,Fog-Rain-Thunderstorm,173
2013-5-9,75,56,37,49,42,37,100,85,29,30.21,30.15,30.08,10,4,0,12,3,14,0.00,1,Fog,280
2013-5-10,81,62,42,51,44,39,89,52,23,30.21,30.16,30.12,10,10,10,14,4,17,0.00,1,,296
2013-5-11,83,65,46,52,47,41,93,58,26,30.19,30.12,30.06,10,10,10,13,3,14,0.00,2,,180
2013-5-12,83,65,46,54,45,33,86,54,18,30.11,30.06,29.99,10,10,10,16,6,23,0.00,0,,215
2013-5-13,77,59,41,46,41,35,92,58,27,30.06,30.04,30.01,10,10,10,25,8,32,0.00,0,,282
2013-5-14,74,54,34,42,36,29,100,68,22,30.13,30.05,29.96,10,7,0,20,6,24,0.00,0,Fog,323
2013-5-15,69,54,39,43,39,33,92,61,29,30.01,29.98,29.94,10,10,10,23,8,28,T,2,,277
2013-5-16,60,51,41,45,41,39,92,76,47,29.97,29.92,29.84,10,10,4,18,4,23,0.16,6,Rain,286
2013-5-17,62,49,35,39,35,28,89,62,29,30.06,29.95,29.91,10,10,10,18,6,25,0.01,4,Rain,275
2013-5-18,62,46,30,41,34,29,100,72,37,30.23,30.13,30.07,10,9,1,26,8,33,T,3,Rain,307
2013-5-19,66,47,27,40,33,28,92,56,26,30.32,30.24,30.18,10,10,10,16,5,22,0.00,0,,347
2013-5-20,73,53,32,39,32,25,86,43,17,30.23,30.08,29.91,10,10,10,14,4,17,0.00,0,,236
2013-5-21,57,43,29,43,32,22,92,64,28,29.99,29.86,29.74,10,10,6,32,15,39,0.01,4,Rain,275
2013-5-22,51,37,23,30,24,21,88,59,34,30.03,29.99,29.95,10,10,10,20,9,25,0.00,3,,276
2013-5-23,55,44,33,34,31,26,100,75,32,30.01,29.96,29.94,10,8,2,21,6,29,0.05,6,Rain-Snow,290
2013-5-24,62,47,31,35,30,23,92,56,23,30.02,29.97,29.92,10,10,10,18,6,23,0.00,4,,293
2013-5-25,68,48,28,43,31,20,96,64,16,30.02,29.97,29.90,10,9,2,20,4,25,0.10,2,Rain,258
2013-5-26,62,53,44,43,38,34,92,65,36,30.04,29.98,29.92,10,10,9,24,8,29,0.00,5,,275
2013-5-27,57,48,39,47,43,36,92,81,61,30.03,29.90,29.83,10,9,4,23,7,30,0.23,8,Rain,226
2013-5-28,65,54,42,44,41,35,92,71,34,29.93,29.88,29.75,10,10,7,15,8,24,0.05,5,Rain,268
2013-5-29,63,51,38,46,37,32,83,60,35,30.00,29.85,29.74,10,10,10,24,12,29,0.01,4,Rain,278
2013-5-30,66,48,30,36,31,22,96,58,20,30.15,30.05,30.01,10,10,10,18,5,24,0.00,0,,290
2013-5-31,74,53,31,39,33,22,96,52,14,30.21,30.17,30.11,10,10,10,13,4,25,0.00,0,,333